Location: Kawakawa
(35.3830°S, 174.0670°E)
Time: 17:57:06
(UTC+13:00)

Explorer 7 - Pass Details

Date: 15 December 2019
Orbit: 485 x 679 km, 50.3° (Epoch: 28 January)

Event Time Altitude Azimuth Distance (km) Brightness Sun altitude
Rises 03:15:00 0° 307° (NW) 2,683 - -25.2°
Reaches altitude 10° 03:17:16 10° 305° (NW) 1,768 - -25.0°
Maximum altitude 03:21:16 75° 219° (SW) 535 - -24.6°
Exits shadow 03:21:53 59° 157° (SSE) 593 7.1 -24.5°
Drops below altitude 10° 03:25:08 10° 133° (SE) 1,711 10.3 -24.2°
Sets 03:27:18 0° 131° (SE) 2,587 11.5 -23.9°
